Manteo, NC

12:20 PM EDT on July 28, 2017 (GMT -0400)
Dare County Regional

Weather History for KMQI - August, 2014

Change the Weather History Date:

Thursday, August 14, 2014

  Actual Average Record
Temperature  
Mean Temperature 74 °F -  
Max Temperature 78 °F 82 °F 94 °F (1980)
Min Temperature 71 °F 72 °F 64 °F (2006)
Cooling Degree Days 10    
Growing Degree Days 24 (Base 50)    
Moisture  
Dew Point 62 °F    
Average Humidity 63    
Maximum Humidity 78    
Minimum Humidity 47    
Precipitation  
Precipitation 0.00 in - - ()
Sea Level Pressure  
Sea Level Pressure 29.96 in    
Wind  
Wind Speed 8 mph (North)    
Max Wind Speed 13 mph    
Max Gust Speed 17 mph    
Visibility 10 miles    
Events      
Averages and records for this station are not official NWS values.
T = Trace of Precipitation, MM = Missing Value Source: NWS Daily Summary

Daily Weather History Graph

Daily Weather History Graph

Search for Another Location

Airport or City:

Trip Planner

Search our weather history database for the weather conditions in past years. The results will help you decide how hot, cold, wet, or windy it might be!

Date:

Astronomy

Aug. 14, 2014 Rise Set
Actual Time 6:20 AM EDT 7:53 PM EDT
Civil Twilight 5:53 AM EDT 8:20 PM EDT
Nautical Twilight 5:20 AM EDT 8:53 PM EDT
Astronomical Twilight 4:46 AM EDT 9:27 PM EDT
Moon 10:26 PM EDT (8/14) 10:44 AM EDT (8/14)
Length of Visible Light 14h 27m
Length of Day
13h 33m
Waning Gibbous, 79% of the Moon is Illuminated
Aug 14
Waning Gibbous
Aug 17
Last Quarter
Aug 25
New
Sep 2
First Quarter
Sep 8
Full

Hourly Weather History & Observations

Time (EDT) Temp. Dew Point Humidity Pressure Visibility Wind Dir Wind Speed Gust Speed Precip Events Conditions
12:20 AM 75.2 °F 62.6 °F 65% 29.92 in 10.0 mi NW 8.1 mph - N/A   Clear
1:00 AM 75.2 °F 62.6 °F 65% 29.92 in 10.0 mi NW 6.9 mph - N/A   Clear
1:20 AM 75.2 °F 64.4 °F 69% 29.92 in 10.0 mi NW 9.2 mph - N/A   Clear
1:40 AM 75.2 °F 64.4 °F 69% 29.92 in 10.0 mi NW 9.2 mph - N/A   Clear
2:00 AM 75.2 °F 64.4 °F 69% 29.91 in 10.0 mi WNW 8.1 mph - N/A   Clear
2:20 AM 73.4 °F 64.4 °F 73% 29.91 in 10.0 mi NW 9.2 mph - N/A   Clear
2:40 AM 73.4 °F 64.4 °F 73% 29.91 in 10.0 mi NW 4.6 mph - N/A   Clear
3:00 AM 73.4 °F 64.4 °F 73% 29.91 in 10.0 mi NW 6.9 mph - N/A   Clear
3:20 AM 73.4 °F 64.4 °F 73% 29.91 in 10.0 mi NW 5.8 mph - N/A   Clear
3:40 AM 71.6 °F 64.4 °F 78% 29.91 in 10.0 mi NNW 8.1 mph - N/A   Clear
4:20 AM 73.4 °F 64.4 °F 73% 29.91 in 10.0 mi North 9.2 mph - N/A   Mostly Cloudy
4:40 AM 73.4 °F 64.4 °F 73% 29.91 in 10.0 mi North 8.1 mph - N/A   Overcast
5:00 AM 73.4 °F 64.4 °F 73% 29.91 in 10.0 mi North 9.2 mph - N/A   Overcast
5:40 AM 71.6 °F 64.4 °F 78% 29.92 in 10.0 mi North 9.2 mph - N/A   Scattered Clouds
6:00 AM 71.6 °F 64.4 °F 78% 29.92 in 10.0 mi North 9.2 mph - N/A   Scattered Clouds
6:20 AM 71.6 °F 62.6 °F 73% 29.93 in 10.0 mi North 8.1 mph - N/A   Mostly Cloudy
6:40 AM 71.6 °F 62.6 °F 73% 29.94 in 10.0 mi NNW 10.4 mph - N/A   Scattered Clouds
7:00 AM 71.6 °F 62.6 °F 73% 29.95 in 10.0 mi North 4.6 mph - N/A   Clear
7:20 AM 71.6 °F 62.6 °F 73% 29.95 in 10.0 mi North 8.1 mph - N/A   Clear
7:40 AM 73.4 °F 62.6 °F 69% 29.95 in 10.0 mi North 6.9 mph - N/A   Scattered Clouds
8:00 AM 73.4 °F 62.6 °F 69% 29.96 in 10.0 mi North 8.1 mph - N/A   Scattered Clouds
8:20 AM 75.2 °F 60.8 °F 61% 29.97 in 10.0 mi North 10.4 mph - N/A   Scattered Clouds
8:40 AM 75.2 °F 60.8 °F 61% 29.97 in 10.0 mi North 11.5 mph - N/A   Clear
9:00 AM 75.2 °F 60.8 °F 61% 29.98 in 10.0 mi North 10.4 mph 17.3 mph N/A   Clear
9:20 AM 75.2 °F 60.8 °F 61% 29.98 in 10.0 mi North 12.7 mph 17.3 mph N/A   Scattered Clouds
9:40 AM 75.2 °F 60.8 °F 61% 29.99 in 10.0 mi North 10.4 mph 17.3 mph N/A   Scattered Clouds
10:00 AM 77.0 °F 60.8 °F 57% 29.99 in 10.0 mi NNW 10.4 mph - N/A   Clear
10:20 AM 77.0 °F 60.8 °F 57% 30.00 in 10.0 mi North 8.1 mph - N/A   Clear
10:40 AM 77.0 °F 60.8 °F 57% 30.00 in 10.0 mi NE 8.1 mph - N/A   Clear
11:00 AM 77.0 °F 60.8 °F 57% 30.01 in 10.0 mi NE 6.9 mph - N/A   Clear
11:20 AM 77.0 °F 60.8 °F 57% 30.01 in 10.0 mi North 9.2 mph - N/A   Clear
11:40 AM 77.0 °F 60.8 °F 57% 30.00 in 10.0 mi North 6.9 mph - N/A   Clear
11:59 AM 77.0 °F 60.8 °F 57% 30.01 in 10.0 mi North 6.9 mph - N/A   Clear
12:19 PM 77.0 °F 60.8 °F 57% 30.01 in 10.0 mi NNW 5.8 mph - N/A   Clear
12:39 PM 78.8 °F 62.6 °F 57% 30.00 in 10.0 mi NNW 6.9 mph - N/A   Clear
12:59 PM 78.8 °F 60.8 °F 54% 30.00 in 10.0 mi NNW 6.9 mph - N/A   Clear
1:19 PM 78.8 °F 60.8 °F 54% 30.00 in 10.0 mi North 6.9 mph - N/A   Clear
1:39 PM 77.0 °F 59.0 °F 54% 29.98 in 10.0 mi NNE 5.8 mph - N/A   Clear
2:02 PM 78.8 °F 57.2 °F 47% 29.98 in 10.0 mi NNW 4.6 mph - N/A   Clear
2:19 PM 78.8 °F 59.0 °F 51% 29.98 in 10.0 mi NNE 8.1 mph - N/A   Clear
2:39 PM 78.8 °F 60.8 °F 54% 29.97 in 10.0 mi NNE 8.1 mph - N/A   Clear
2:59 PM 78.8 °F 60.8 °F 54% 29.96 in 10.0 mi NNW 4.6 mph - N/A   Clear
3:19 PM 78.8 °F 60.8 °F 54% 29.96 in 10.0 mi North 8.1 mph - N/A   Clear
3:42 PM 78.8 °F 59.0 °F 51% 29.95 in 10.0 mi North 8.1 mph - N/A   Clear
3:59 PM 78.8 °F 57.2 °F 47% 29.95 in 10.0 mi North 6.9 mph - N/A   Clear
4:20 PM 78.8 °F 57.2 °F 47% 29.95 in 10.0 mi North 6.9 mph - N/A   Clear
4:40 PM 78.8 °F 57.2 °F 47% 29.95 in 10.0 mi Calm Calm - N/A   Clear
4:59 PM 78.8 °F 57.2 °F 47% 29.95 in 10.0 mi ENE 3.5 mph - N/A   Clear
5:19 PM 77.0 °F 57.2 °F 50% 29.95 in 10.0 mi SSE 6.9 mph - N/A   Clear
5:39 PM 77.0 °F 57.2 °F 50% 29.95 in 10.0 mi ESE 4.6 mph - N/A   Clear
5:59 PM 78.8 °F 57.2 °F 47% 29.95 in 10.0 mi SE 3.5 mph - N/A   Clear
6:19 PM 77.0 °F 57.2 °F 50% 29.95 in 10.0 mi South 8.1 mph - N/A   Clear
6:39 PM 77.0 °F 60.8 °F 57% 29.95 in 10.0 mi SSE 6.9 mph - N/A   Clear
6:59 PM 75.2 °F 60.8 °F 61% 29.95 in 10.0 mi SE 5.8 mph - N/A   Clear
7:19 PM 75.2 °F 60.8 °F 61% 29.95 in 10.0 mi South 4.6 mph - N/A   Clear
7:39 PM 73.4 °F 60.8 °F 65% 29.94 in 10.0 mi South 3.5 mph - N/A   Clear
7:59 PM 73.4 °F 60.8 °F 65% 29.95 in 10.0 mi Calm Calm - N/A   Clear
8:19 PM 73.4 °F 60.8 °F 65% 29.96 in 10.0 mi SE 3.5 mph - N/A   Clear
8:40 PM 71.6 °F 60.8 °F 69% 29.96 in 10.0 mi ESE 3.5 mph - N/A   Clear
8:59 PM 71.6 °F 62.6 °F 73% 29.97 in 10.0 mi SE 3.5 mph - N/A   Clear
9:19 PM 71.6 °F 62.6 °F 73% 29.98 in 10.0 mi SE 3.5 mph - N/A   Clear
9:40 PM 71.6 °F 62.6 °F 73% 29.98 in 10.0 mi SE 4.6 mph - N/A   Clear
10:00 PM 71.6 °F 62.6 °F 73% 29.98 in 10.0 mi South 5.8 mph - N/A   Clear
10:20 PM 73.4 °F 64.4 °F 73% 29.98 in 10.0 mi South 4.6 mph - N/A   Clear
10:40 PM 75.2 °F 64.4 °F 69% 29.98 in 10.0 mi South 10.4 mph - N/A   Clear
11:00 PM 75.2 °F 64.4 °F 69% 29.99 in 10.0 mi South 10.4 mph - N/A   Clear
11:20 PM 75.2 °F 64.4 °F 69% 29.99 in 10.0 mi SSW 11.5 mph - N/A   Clear
11:40 PM 75.2 °F 64.4 °F 69% 29.99 in 10.0 mi SSW 11.5 mph - N/A   Clear